Rockford, IL

10:39 PM CDT on March 23, 2017 (GMT -0500)
Greater Rockford

Weather History for KRFD - August, 2014

Change the Weather History Date:

Tuesday, August 12, 2014

  Actual Average Record
Temperature  
Mean Temperature 68 °F 72 °F  
Max Temperature 75 °F 83 °F 99 °F (1918)
Min Temperature 60 °F 62 °F 44 °F (1967)
Degree Days  
Heating Degree Days 0 0  
Month to date heating degree days 0 0  
Since 1 June heating degree days 21 34  
Since 1 July heating degree days 10 3  
Cooling Degree Days 3 8  
Month to date cooling degree days 85 96  
Year to date cooling degree days 510 600  
Since 1 June cooling degree days 427 545  
Growing Degree Days 18 (Base 50)    
Moisture  
Dew Point 55 °F    
Average Humidity 67    
Maximum Humidity 87    
Minimum Humidity 46    
Precipitation  
Precipitation 0.00 in 0.16 in 1.10 in (1940)
Month to date precipitation 1.89 1.79  
Year to date precipitation 22.38 22.86  
Snow  
Snow 0.00 in 0.00 in 0.00 in ()
Month to date snowfall T 0.0  
Since 1 June snowfall T 0.0  
Since 1 July snowfall T 0.0  
Snow Depth 0.00 in    
Sea Level Pressure  
Sea Level Pressure 29.91 in    
Wind  
Wind Speed 12 mph (NNW)    
Max Wind Speed 24 mph    
Max Gust Speed 30 mph    
Visibility 10 miles    
Events      
T = Trace of Precipitation, MM = Missing Value Source: NWS Daily Summary

Daily Weather History Graph

Daily Weather History Graph

Search for Another Location

Airport or City:

Trip Planner

Search our weather history database for the weather conditions in past years. The results will help you decide how hot, cold, wet, or windy it might be!

Date:

Astronomy

Aug. 12, 2014 Rise Set
Actual Time 6:00 AM CDT 8:01 PM CDT
Civil Twilight 5:30 AM CDT 8:31 PM CDT
Nautical Twilight 4:52 AM CDT 9:08 PM CDT
Astronomical Twilight 4:12 AM CDT 9:49 PM CDT
Moon 9:04 PM CDT (8/12) 8:21 AM CDT (8/12)
Length of Visible Light 15h 01m
Length of Day
14h 00m
Waning Gibbous, 94% of the Moon is Illuminated
Aug 12
Waning Gibbous
Aug 17
Last Quarter
Aug 25
New
Sep 2
First Quarter
Sep 8
Full

Hourly Weather History & Observations

Time (CDT) Temp. Dew Point Humidity Pressure Visibility Wind Dir Wind Speed Gust Speed Precip Events Conditions
12:54 AM 64.0 °F 61.0 °F 90% 29.84 in 10.0 mi NNW 10.4 mph 20.7 mph 0.02 in   Overcast
1:22 AM 64.0 °F 61.0 °F 90% 29.86 in 10.0 mi NNW 11.5 mph - N/A   Overcast
1:54 AM 64.0 °F 61.0 °F 90% 29.85 in 10.0 mi NNW 9.2 mph - N/A   Overcast
2:54 AM 64.9 °F 60.1 °F 84% 29.83 in 10.0 mi NW 10.4 mph - N/A   Overcast
3:54 AM 64.0 °F 60.1 °F 87% 29.83 in 10.0 mi NNW 13.8 mph - N/A   Overcast
4:33 AM 64.0 °F 59.0 °F 84% 29.85 in 10.0 mi NW 12.7 mph - N/A   Overcast
4:54 AM 64.0 °F 57.9 °F 80% 29.84 in 10.0 mi NNW 13.8 mph 21.9 mph N/A   Overcast
6:54 AM 62.1 °F 53.1 °F 72% 29.88 in 10.0 mi NNW 19.6 mph 25.3 mph N/A   Overcast
7:54 AM 61.0 °F 53.1 °F 75% 29.91 in 10.0 mi NW 15.0 mph 23.0 mph N/A   Overcast
8:54 AM 62.1 °F 53.1 °F 72% 29.91 in 10.0 mi NNW 13.8 mph - N/A   Overcast
9:54 AM 62.1 °F 52.0 °F 70% 29.92 in 10.0 mi NNW 16.1 mph 24.2 mph N/A   Overcast
10:54 AM 64.0 °F 52.0 °F 65% 29.93 in 10.0 mi North 18.4 mph - N/A   Mostly Cloudy
12:54 PM 66.9 °F 53.1 °F 61% 29.94 in 10.0 mi North 15.0 mph - N/A   Overcast
1:54 PM 70.0 °F 53.1 °F 55% 29.93 in 10.0 mi NNW 13.8 mph - N/A   Overcast
2:54 PM 72.0 °F 54.0 °F 53% 29.93 in 10.0 mi NNW 11.5 mph - N/A   Mostly Cloudy
3:54 PM 73.0 °F 53.1 °F 49% 29.93 in 10.0 mi North 11.5 mph - N/A   Mostly Cloudy
4:54 PM 73.0 °F 53.1 °F 49% 29.94 in 10.0 mi NNW 12.7 mph - N/A   Mostly Cloudy
5:54 PM 73.0 °F 52.0 °F 48% 29.94 in 10.0 mi NW 13.8 mph - N/A   Mostly Cloudy
6:54 PM 73.0 °F 52.0 °F 48% 29.94 in 10.0 mi NNW 9.2 mph - N/A   Scattered Clouds
7:54 PM 68.0 °F 53.1 °F 59% 29.96 in 10.0 mi NW 5.8 mph - N/A   Partly Cloudy
8:54 PM 64.9 °F 54.0 °F 68% 29.99 in 10.0 mi WNW 6.9 mph - N/A   Partly Cloudy
9:54 PM 64.9 °F 53.1 °F 65% 30.00 in 10.0 mi NW 8.1 mph - N/A   Clear
10:54 PM 63.0 °F 53.1 °F 70% 30.01 in 10.0 mi NW 8.1 mph - N/A   Clear
11:54 PM 63.0 °F 52.0 °F 67% 30.02 in 10.0 mi NW 8.1 mph - N/A   Clear